Regional Weather Roundup
Issued by NWS

Home | Current Version | Previous Version | Graphics & Text | Print | Product List | Glossary On
Versions: 1 2 3 4 5 6 7 8 9 10 11 12 13 14 15 16 17 18 19 20 21 22 23 24 25 26 27 28 29 30 31 32 33 34 35 36 37 38 39 40 41 42 43 44 45 46 47 48 49 50
000
ASUS45 KCYS 181710
RWRWY

WYOMING REGIONAL WEATHER ROUNDUP
NATIONAL WEATHER SERVICE CHEYENNE WY
1000 AM MST THU JAN 18 2018

NOTE:  "FAIR" INDICATES FEW OR NO CLOUDS BELOW 12,000 FEET
WITH NO SIGNIFICANT WEATHER AND/OR OBSTRUCTIONS TO VISIBILITY.

WYZ001-181800-
YELLOWSTONE NATIONAL PARK

CITY           SKY/WX    TMP DP  RH WIND       PRES   REMARKS
LK YELLOWSTONE   N/A     27  22  81 CALM      30.15F
W YELLOWSTONE  NOT AVBL

$$
WYZ002>013-054>058-071-098>099-181800-
NORTHERN WYOMING

CITY           SKY/WX    TMP DP  RH WIND       PRES   REMARKS
JACKSON        CLOUDY    18  13  80 CALM      30.22F
CODY           FAIR      46  27  47 VRB3      29.98F
GREYBULL       FAIR      15  10  80 NW5       30.05F WCI   8
WORLAND        FAIR      18  15  88 SW7       30.04R WCI   9
SHERIDAN       FAIR      32  24  72 CALM      29.84F
BUFFALO        FAIR      50  17  27 SE5       29.90F
GILLETTE         N/A    N/A N/A N/A MISG      29.91F
HULETT         FAIR      41  21  45 SW14      29.93R
NEWCASTLE      FAIR      32  23  69 SE5       29.99F WCI  27

$$
WYZ014>020-022>026-101>103-181800-
CENTRAL WYOMING

CITY           SKY/WX    TMP DP  RH WIND       PRES   REMARKS
BIG PINEY      FAIR      22  17  81 E3        30.24R
PINEDALE       FAIR      18  12  79 N3        30.25S
DUBOIS         FAIR      37  27  65 N12G20    30.11S WCI  30
LANDER         FAIR      23  16  74 W6        30.08S WCI  16
RIVERTON       FAIR      22  15  75 N3        30.10S
CASPER         FAIR      40  21  46 SW24G31   30.08R WCI  29
DOUGLAS        FAIR      44  28  53 CALM      30.02S

$$
WYZ021-027>030-104>119-181800-
SOUTHERN WYOMING

CITY           SKY/WX    TMP DP  RH WIND       PRES   REMARKS
EVANSTON       FAIR      33  22  63 S8        30.22F WCI  26
FORT BRIDGER   FAIR      45  22  41 CALM      30.25S
ROCK SPRINGS   FAIR      33  19  56 SW9       30.24S WCI  25
DIXON            N/A     26  19  73 CALM      30.34S
RAWLINS        FAIR      39  21  48 W12       30.23F WCI  32
SARATOGA       FAIR      32  19  59 CALM      30.26R
LARAMIE        FAIR      40  14  34 SW21G30   30.16R WCI  30
CHEYENNE       FAIR      51  14  22 SW8       30.09S
TORRINGTON     FAIR      45  26  47 W6        30.01S

$$



USA.gov is the U.S. government's official web portal to all federal, state and local government web resources and services.